Mitchell, SD

3:11 AM CDT on August 19, 2017 (GMT -0500)
Mitchell Municipal

Weather History for KMHE - July, 2013

Change the Weather History Date:

Sunday, July 28, 2013

  Actual Average Record
Temperature  
Mean Temperature 59 °F 74 °F  
Max Temperature 75 °F 86 °F 109 °F (1935)
Min Temperature 43 °F 63 °F 34 °F (1900)
Degree Days  
Heating Degree Days 6 0  
Month to date heating degree days 16 0  
Since 1 June heating degree days 66 35  
Since 1 July heating degree days 16 0  
Cooling Degree Days 0 9  
Month to date cooling degree days 279 277  
Year to date cooling degree days 503 487  
Since 1 June cooling degree days 446 447  
Growing Degree Days 9 (Base 50)    
Moisture  
Dew Point 47 °F    
Average Humidity 63    
Maximum Humidity 93    
Minimum Humidity 33    
Precipitation  
Precipitation 0.00 in 0.10 in 0.77 in (1903)
Month to date precipitation 3.80 2.83  
Year to date precipitation 15.89 13.69  
Snow  
Snow 0.00 in - 0.00 in ()
Month to date snowfall 0.0  
Since 1 June snowfall 0.0  
Since 1 July snowfall 0.0  
Snow Depth 0.00 in    
Sea Level Pressure  
Sea Level Pressure 30.05 in    
Wind  
Wind Speed 4 mph (ESE)    
Max Wind Speed 10 mph    
Max Gust Speed 17 mph    
Visibility 10 miles    
Events      
T = Trace of Precipitation, MM = Missing Value Source: NWS Daily Summary

Daily Weather History Graph

Daily Weather History Graph

Search for Another Location

Airport or City:

Trip Planner

Search our weather history database for the weather conditions in past years. The results will help you decide how hot, cold, wet, or windy it might be!

Date:

Astronomy

Jul. 28, 2013 Rise Set
Actual Time 6:16 AM CDT 8:59 PM CDT
Civil Twilight 5:43 AM CDT 9:32 PM CDT
Nautical Twilight 5:01 AM CDT 10:14 PM CDT
Astronomical Twilight 4:13 AM CDT 11:02 PM CDT
Moon No Moon Rise 1:16 PM CDT (7/28)
Length of Visible Light 15h 49m
Length of Day
14h 42m
Waning Gibbous, 60% of the Moon is Illuminated
Jul 28
Waning Gibbous
Jul 29
Last Quarter
Aug 6
New
Aug 14
First Quarter
Aug 20
Full

Hourly Weather History & Observations

Time (CDT) Temp. Dew Point Humidity Pressure Visibility Wind Dir Wind Speed Gust Speed Precip Events Conditions
12:53 AM 52.0 °F 46.0 °F 80% 30.08 in 10.0 mi Calm Calm - N/A   Clear
1:53 AM 48.9 °F 46.0 °F 90% 30.07 in 10.0 mi Calm Calm - N/A   Clear
2:53 AM 48.9 °F 45.0 °F 86% 30.07 in 10.0 mi Calm Calm - N/A   Clear
3:53 AM 50.0 °F 46.0 °F 86% 30.06 in 10.0 mi Calm Calm - N/A   Clear
4:53 AM 48.0 °F 45.0 °F 89% 30.06 in 10.0 mi Calm Calm - N/A   Clear
5:53 AM 45.0 °F 43.0 °F 93% 30.07 in 10.0 mi Calm Calm - N/A   Clear
6:53 AM 46.0 °F 43.0 °F 89% 30.08 in 10.0 mi Calm Calm - N/A   Clear
7:53 AM 52.0 °F 46.9 °F 83% 30.08 in 10.0 mi Calm Calm - N/A   Clear
8:53 AM 59.0 °F 48.9 °F 69% 30.09 in 10.0 mi Calm Calm - N/A   Clear
9:53 AM 64.0 °F 48.0 °F 56% 30.09 in 10.0 mi South 4.6 mph - N/A   Clear
10:53 AM 66.9 °F 46.0 °F 47% 30.08 in 10.0 mi East 4.6 mph - N/A   Clear
11:53 AM 69.1 °F 44.1 °F 40% 30.07 in 10.0 mi SE 8.1 mph - N/A   Clear
12:53 PM 71.1 °F 45.0 °F 39% 30.06 in 10.0 mi Calm Calm - N/A   Clear
1:53 PM 73.0 °F 46.0 °F 38% 30.06 in 10.0 mi East 6.9 mph - N/A   Clear
2:53 PM 73.0 °F 45.0 °F 37% 30.04 in 10.0 mi ESE 5.8 mph - N/A   Clear
3:53 PM 73.9 °F 45.0 °F 35% 30.03 in 10.0 mi ESE 8.1 mph - N/A   Clear
4:53 PM 73.9 °F 43.0 °F 33% 30.02 in 10.0 mi Calm Calm - N/A   Clear
5:53 PM 73.9 °F 48.0 °F 40% 30.02 in 10.0 mi East 6.9 mph - N/A   Clear
6:53 PM 73.0 °F 46.0 °F 38% 30.01 in 10.0 mi ESE 6.9 mph - N/A   Clear
7:53 PM 70.0 °F 52.0 °F 53% 30.01 in 10.0 mi ESE 6.9 mph - N/A   Clear
8:53 PM 63.0 °F 52.0 °F 67% 30.01 in 10.0 mi East 6.9 mph - N/A   Clear
9:53 PM 60.1 °F 50.0 °F 69% 30.04 in 10.0 mi ESE 6.9 mph - N/A   Clear
10:53 PM 60.1 °F 50.0 °F 69% 30.04 in 10.0 mi ESE 6.9 mph - N/A   Clear
11:53 PM 57.0 °F 50.0 °F 77% 30.04 in 10.0 mi ESE 5.8 mph - N/A   Clear